Time,TemperatureF,DewpointF,PressureIn,WindDirection,WindDirectionDegrees,WindSpeedMPH,WindSpeedGustMPH,Humidity,HourlyPrecipIn,Conditions,Clouds,dailyrainin,SoftwareType,DateUTC
2014-09-17 00:01:00,53.7,48.7,30.04,East,88,0.0,1.0,83,0.00,,,0.00,VWS V14.01,2014-09-17 04:01:00,
2014-09-17 00:06:00,53.7,48.7,30.04,East,88,0.0,1.0,83,0.00,,,0.00,VWS V14.01,2014-09-17 04:06:00,
2014-09-17 00:11:00,53.8,48.8,30.04,East,88,0.0,1.0,83,0.00,,,0.00,VWS V14.01,2014-09-17 04:11:00,
2014-09-17 00:16:00,53.7,48.7,30.04,East,88,0.0,1.0,83,0.00,,,0.00,VWS V14.01,2014-09-17 04:16:00,
2014-09-17 00:21:00,53.7,48.7,30.04,East,88,0.0,1.0,83,0.00,,,0.00,VWS V14.01,2014-09-17 04:21:00,
2014-09-17 00:26:00,53.6,48.6,30.04,East,88,0.0,1.0,83,0.00,,,0.00,VWS V14.01,2014-09-17 04:26:00,
2014-09-17 00:31:00,53.4,48.4,30.04,East,88,0.0,0.0,83,0.00,,,0.00,VWS V14.01,2014-09-17 04:31:00,
2014-09-17 00:36:00,53.3,48.3,30.04,East,88,0.0,0.0,83,0.00,,,0.00,VWS V14.01,2014-09-17 04:36:00,
2014-09-17 00:41:00,53.0,48.0,30.04,East,88,0.0,0.0,83,0.00,,,0.00,VWS V14.01,2014-09-17 04:41:00,
2014-09-17 00:46:00,52.8,48.1,30.04,East,88,0.0,0.0,84,0.00,,,0.00,VWS V14.01,2014-09-17 04:46:00,
2014-09-17 00:51:00,52.6,47.9,30.04,East,88,0.0,0.0,84,0.00,,,0.00,VWS V14.01,2014-09-17 04:51:00,
2014-09-17 00:56:00,52.4,47.7,30.04,East,88,0.0,0.0,84,0.00,,,0.00,VWS V14.01,2014-09-17 04:56:00,
2014-09-17 01:02:00,52.1,47.4,30.04,East,88,0.0,2.0,84,0.00,,,0.00,VWS V14.01,2014-09-17 05:02:00,
2014-09-17 01:07:00,51.8,47.4,30.04,East,87,2.0,2.0,85,0.00,,,0.00,VWS V14.01,2014-09-17 05:07:00,
2014-09-17 01:12:00,51.5,47.5,30.04,East,87,0.0,2.0,86,0.00,,,0.00,VWS V14.01,2014-09-17 05:12:00,
2014-09-17 01:17:00,51.4,47.7,30.04,East,87,0.0,2.0,87,0.00,,,0.00,VWS V14.01,2014-09-17 05:17:00,
2014-09-17 01:22:00,51.3,47.6,30.04,East,87,0.0,2.0,87,0.00,,,0.00,VWS V14.01,2014-09-17 05:22:00,
2014-09-17 01:27:00,51.2,47.8,30.04,East,87,1.0,2.0,88,0.00,,,0.00,VWS V14.01,2014-09-17 05:27:00,
2014-09-17 01:32:00,51.1,47.7,30.04,East,87,0.0,0.0,88,0.00,,,0.00,VWS V14.01,2014-09-17 05:32:00,
2014-09-17 01:37:00,50.9,47.5,30.04,East,87,0.0,1.0,88,0.00,,,0.00,VWS V14.01,2014-09-17 05:37:00,
2014-09-17 01:42:00,50.8,47.4,30.04,East,87,0.0,1.0,88,0.00,,,0.00,VWS V14.01,2014-09-17 05:42:00,
2014-09-17 01:47:00,50.7,47.3,30.04,East,87,0.0,1.0,88,0.00,,,0.00,VWS V14.01,2014-09-17 05:47:00,
2014-09-17 01:52:00,50.6,47.2,30.04,East,87,0.0,2.0,88,0.00,,,0.00,VWS V14.01,2014-09-17 05:52:00,
2014-09-17 01:57:00,50.5,47.1,30.04,East,87,0.0,2.0,88,0.00,,,0.00,VWS V14.01,2014-09-17 05:57:00,
2014-09-17 02:02:00,50.4,47.0,30.04,East,87,0.0,0.0,88,0.00,,,0.00,VWS V14.01,2014-09-17 06:02:00,
2014-09-17 02:07:00,50.2,47.1,30.04,East,87,0.0,2.0,89,0.00,,,0.00,VWS V14.01,2014-09-17 06:07:00,
2014-09-17 02:12:00,50.1,47.0,30.05,East,87,0.0,2.0,89,0.00,,,0.00,VWS V14.01,2014-09-17 06:12:00,
2014-09-17 02:17:00,50.0,46.9,30.05,East,87,0.0,2.0,89,0.00,,,0.00,VWS V14.01,2014-09-17 06:17:00,
2014-09-17 02:22:00,49.8,46.7,30.05,East,87,0.0,2.0,89,0.00,,,0.00,VWS V14.01,2014-09-17 06:22:00,
2014-09-17 02:27:00,49.7,46.6,30.04,East,87,0.0,2.0,89,0.00,,,0.00,VWS V14.01,2014-09-17 06:27:00,
2014-09-17 02:32:00,49.6,46.8,30.04,East,87,0.0,0.0,90,0.00,,,0.00,VWS V14.01,2014-09-17 06:32:00,
2014-09-17 02:37:00,49.4,46.6,30.04,East,87,0.0,0.0,90,0.00,,,0.00,VWS V14.01,2014-09-17 06:37:00,
2014-09-17 02:38:00,49.4,46.6,30.04,East,87,0.0,0.0,90,0.00,,,0.00,VWS V14.01,2014-09-17 06:38:00,
2014-09-17 02:43:00,49.3,46.5,30.04,East,87,0.0,0.0,90,0.00,,,0.00,VWS V14.01,2014-09-17 06:43:00,
2014-09-17 02:48:00,49.1,46.3,30.04,East,87,0.0,0.0,90,0.00,,,0.00,VWS V14.01,2014-09-17 06:48:00,
2014-09-17 02:53:00,49.0,46.2,30.04,East,87,0.0,0.0,90,0.00,,,0.00,VWS V14.01,2014-09-17 06:53:00,
2014-09-17 02:58:00,48.8,46.0,30.04,East,87,0.0,0.0,90,0.00,,,0.00,VWS V14.01,2014-09-17 06:58:00,
2014-09-17 03:01:00,48.7,45.9,30.04,East,87,0.0,0.0,90,0.00,,,0.00,VWS V14.01,2014-09-17 07:01:00,
2014-09-17 03:06:00,48.5,45.7,30.04,East,87,0.0,0.0,90,0.00,,,0.00,VWS V14.01,2014-09-17 07:06:00,
2014-09-17 03:08:00,48.5,45.7,30.04,East,87,0.0,0.0,90,0.00,,,0.00,VWS V14.01,2014-09-17 07:08:00,
2014-09-17 03:13:00,48.4,45.6,30.04,East,87,0.0,0.0,90,0.00,,,0.00,VWS V14.01,2014-09-17 07:13:00,
2014-09-17 03:18:00,48.2,46.6,30.04,East,87,0.0,0.0,94,0.00,,,0.00,VWS V14.01,2014-09-17 07:18:00,
2014-09-17 03:23:00,48.1,45.3,30.04,East,87,0.0,0.0,90,0.00,,,0.00,VWS V14.01,2014-09-17 07:23:00,
2014-09-17 03:28:00,48.0,45.2,30.04,East,87,0.0,0.0,90,0.00,,,0.00,VWS V14.01,2014-09-17 07:28:00,
2014-09-17 03:33:00,47.9,45.4,30.04,East,87,0.0,0.0,91,0.00,,,0.00,VWS V14.01,2014-09-17 07:33:00,
2014-09-17 03:38:00,47.7,45.2,30.04,East,87,0.0,0.0,91,0.00,,,0.00,VWS V14.01,2014-09-17 07:38:00,
2014-09-17 03:43:00,47.6,45.1,30.04,East,87,0.0,1.0,91,0.00,,,0.00,VWS V14.01,2014-09-17 07:43:00,
2014-09-17 03:48:00,47.6,45.1,30.04,East,87,0.0,1.0,91,0.00,,,0.00,VWS V14.01,2014-09-17 07:48:00,
2014-09-17 03:53:00,47.6,45.4,30.04,East,87,0.0,1.0,92,0.00,,,0.00,VWS V14.01,2014-09-17 07:53:00,
2014-09-17 03:58:00,47.7,45.5,30.04,East,87,1.0,1.0,92,0.00,,,0.00,VWS V14.01,2014-09-17 07:58:00,
2014-09-17 04:03:00,47.9,45.7,30.03,East,87,0.0,0.0,92,0.00,,,0.00,VWS V14.01,2014-09-17 08:03:00,
2014-09-17 04:08:00,48.0,45.8,30.03,East,87,0.0,0.0,92,0.00,,,0.00,VWS V14.01,2014-09-17 08:08:00,
2014-09-17 04:13:00,48.0,45.8,30.03,East,87,0.0,1.0,92,0.00,,,0.00,VWS V14.01,2014-09-17 08:13:00,
2014-09-17 04:18:00,48.0,45.8,30.03,East,87,0.0,1.0,92,0.00,,,0.00,VWS V14.01,2014-09-17 08:18:00,
2014-09-17 04:24:00,47.9,45.7,30.03,East,87,0.0,1.0,92,0.00,,,0.00,VWS V14.01,2014-09-17 08:24:00,
2014-09-17 04:29:00,47.8,45.6,30.04,SSW,192,2.0,4.0,92,0.00,,,0.00,VWS V14.01,2014-09-17 08:29:00,
2014-09-17 04:34:00,47.6,45.4,30.03,SSW,192,0.0,3.0,92,0.00,,,0.00,VWS V14.01,2014-09-17 08:34:00,
2014-09-17 04:39:00,47.6,45.4,30.03,SSW,192,0.0,3.0,92,0.00,,,0.00,VWS V14.01,2014-09-17 08:39:00,
2014-09-17 04:44:00,47.5,45.3,30.04,SSW,192,0.0,3.0,92,0.00,,,0.00,VWS V14.01,2014-09-17 08:44:00,
2014-09-17 04:49:00,47.4,45.2,30.04,SSW,192,0.0,3.0,92,0.00,,,0.00,VWS V14.01,2014-09-17 08:49:00,
2014-09-17 04:54:00,47.3,45.1,30.03,SSW,192,0.0,3.0,92,0.00,,,0.00,VWS V14.01,2014-09-17 08:54:00,
2014-09-17 04:59:00,47.2,45.0,30.03,SSW,192,0.0,3.0,92,0.00,,,0.00,VWS V14.01,2014-09-17 08:59:00,
2014-09-17 05:04:00,47.0,44.8,30.03,SSW,192,0.0,0.0,92,0.00,,,0.00,VWS V14.01,2014-09-17 09:04:00,
2014-09-17 05:09:00,46.9,44.7,30.03,SSW,192,0.0,0.0,92,0.00,,,0.00,VWS V14.01,2014-09-17 09:09:00,
2014-09-17 05:14:00,46.8,44.6,30.03,SSW,192,0.0,0.0,92,0.00,,,0.00,VWS V14.01,2014-09-17 09:14:00,
2014-09-17 05:19:00,46.7,44.5,30.03,SSW,192,0.0,0.0,92,0.00,,,0.00,VWS V14.01,2014-09-17 09:19:00,
2014-09-17 05:24:00,46.6,44.7,30.03,SSW,192,0.0,0.0,93,0.00,,,0.00,VWS V14.01,2014-09-17 09:24:00,
2014-09-17 05:29:00,46.5,44.3,30.03,SSW,192,0.0,0.0,92,0.00,,,0.00,VWS V14.01,2014-09-17 09:29:00,
2014-09-17 05:34:00,46.4,44.2,30.03,SSW,192,1.0,1.0,92,0.00,,,0.00,VWS V14.01,2014-09-17 09:34:00,
2014-09-17 05:39:00,46.4,44.5,30.03,SSW,192,0.0,1.0,93,0.00,,,0.00,VWS V14.01,2014-09-17 09:39:00,
2014-09-17 05:44:00,46.3,44.4,30.03,SSW,192,0.0,1.0,93,0.00,,,0.00,VWS V14.01,2014-09-17 09:44:00,
2014-09-17 05:49:00,46.2,44.3,30.03,SSW,192,0.0,1.0,93,0.00,,,0.00,VWS V14.01,2014-09-17 09:49:00,
2014-09-17 05:54:00,46.1,44.2,30.03,SSW,192,0.0,1.0,93,0.00,,,0.00,VWS V14.01,2014-09-17 09:54:00,
2014-09-17 05:56:00,46.1,44.2,30.04,SSW,192,0.0,1.0,93,0.00,,,0.00,VWS V14.01,2014-09-17 09:56:00,
2014-09-17 06:01:00,46.0,44.1,30.04,SSW,192,0.0,0.0,93,0.00,,,0.00,VWS V14.01,2014-09-17 10:01:00,
2014-09-17 06:06:00,46.0,44.1,30.04,SSW,192,0.0,0.0,93,0.00,,,0.00,VWS V14.01,2014-09-17 10:06:00,
2014-09-17 06:11:00,46.1,44.2,30.04,SSW,192,0.0,0.0,93,0.00,,,0.00,VWS V14.01,2014-09-17 10:11:00,
2014-09-17 06:16:00,46.1,44.2,30.03,SSW,192,0.0,0.0,93,0.00,,,0.00,VWS V14.01,2014-09-17 10:16:00,
2014-09-17 06:21:00,46.0,44.1,30.03,SSW,192,0.0,0.0,93,0.00,,,0.00,VWS V14.01,2014-09-17 10:21:00,
2014-09-17 06:26:00,46.0,44.1,30.04,SSW,192,0.0,0.0,93,0.00,,,0.00,VWS V14.01,2014-09-17 10:26:00,
2014-09-17 06:31:00,45.9,44.0,30.04,SSW,192,0.0,0.0,93,0.00,,,0.00,VWS V14.01,2014-09-17 10:31:00,
2014-09-17 06:36:00,45.8,43.9,30.04,SSW,192,0.0,0.0,93,0.00,,,0.00,VWS V14.01,2014-09-17 10:36:00,
2014-09-17 06:41:00,45.7,43.8,30.04,SSW,192,0.0,0.0,93,0.00,,,0.00,VWS V14.01,2014-09-17 10:41:00,
2014-09-17 06:46:00,45.6,43.7,30.04,SSW,192,0.0,1.0,93,0.00,,,0.00,VWS V14.01,2014-09-17 10:46:00,
2014-09-17 06:51:00,45.6,43.7,30.04,SSW,192,0.0,1.0,93,0.00,,,0.00,VWS V14.01,2014-09-17 10:51:00,
2014-09-17 06:55:00,45.6,43.7,30.05,SSW,192,0.0,1.0,93,0.00,,,0.00,VWS V14.01,2014-09-17 10:55:00,
2014-09-17 07:00:00,45.7,43.8,30.05,SSW,192,0.0,0.0,93,0.00,,,0.00,VWS V14.01,2014-09-17 11:00:00,
2014-09-17 07:05:00,45.9,44.3,30.05,SSW,192,0.0,0.0,94,0.00,,,0.00,VWS V14.01,2014-09-17 11:05:00,
2014-09-17 07:10:00,46.1,44.5,30.05,SSW,192,1.0,2.0,94,0.00,,,0.00,VWS V14.01,2014-09-17 11:10:00,
2014-09-17 07:15:00,46.4,44.8,30.05,SSW,192,0.0,2.0,94,0.00,,,0.00,VWS V14.01,2014-09-17 11:15:00,
2014-09-17 07:20:00,46.6,45.0,30.05,SSW,192,0.0,2.0,94,0.00,,,0.00,VWS V14.01,2014-09-17 11:20:00,
2014-09-17 07:25:00,46.7,45.1,30.05,SSW,192,0.0,2.0,94,0.00,,,0.00,VWS V14.01,2014-09-17 11:25:00,
2014-09-17 07:30:00,46.8,45.2,30.05,SSW,192,0.0,0.0,94,0.00,,,0.00,VWS V14.01,2014-09-17 11:30:00,
2014-09-17 07:35:00,46.8,45.2,30.05,SSW,192,0.0,0.0,94,0.00,,,0.00,VWS V14.01,2014-09-17 11:35:00,
2014-09-17 07:40:00,46.8,45.2,30.06,SSW,192,0.0,0.0,94,0.00,,,0.00,VWS V14.01,2014-09-17 11:40:00,
2014-09-17 07:45:00,46.8,45.2,30.05,SSW,192,0.0,0.0,94,0.00,,,0.00,VWS V14.01,2014-09-17 11:45:00,
2014-09-17 07:50:00,47.0,45.4,30.06,SSW,192,0.0,0.0,94,0.00,,,0.00,VWS V14.01,2014-09-17 11:50:00,
2014-09-17 07:55:00,47.3,45.7,30.06,SSW,192,0.0,0.0,94,0.00,,,0.00,VWS V14.01,2014-09-17 11:55:00,
2014-09-17 08:00:00,47.6,46.0,30.06,SSW,192,0.0,0.0,94,0.00,,,0.00,VWS V14.01,2014-09-17 12:00:00,
2014-09-17 08:05:00,48.0,46.4,30.06,SSW,192,0.0,0.0,94,0.00,,,0.00,VWS V14.01,2014-09-17 12:05:00,
2014-09-17 08:11:00,48.6,47.0,30.06,SSW,192,0.0,0.0,94,0.00,,,0.00,VWS V14.01,2014-09-17 12:11:00,
2014-09-17 08:16:00,49.4,48.0,30.05,SSW,192,1.0,2.0,95,0.00,,,0.00,VWS V14.01,2014-09-17 12:16:00,
2014-09-17 08:21:00,49.9,48.5,30.06,SSW,192,2.0,2.0,95,0.00,,,0.00,VWS V14.01,2014-09-17 12:21:00,
2014-09-17 08:26:00,50.3,48.9,30.06,SSW,192,1.0,3.0,95,0.00,,,0.00,VWS V14.01,2014-09-17 12:26:00,
2014-09-17 08:31:00,50.6,49.2,30.06,SSW,192,0.0,1.0,95,0.00,,,0.00,VWS V14.01,2014-09-17 12:31:00,
2014-09-17 08:36:00,50.9,49.5,30.06,SSW,192,0.0,2.0,95,0.00,,,0.00,VWS V14.01,2014-09-17 12:36:00,
2014-09-17 08:40:00,51.2,49.8,30.06,SSW,192,0.0,2.0,95,0.00,,,0.00,VWS V14.01,2014-09-17 12:40:00,
2014-09-17 08:45:00,51.5,50.1,30.06,SSW,192,1.0,2.0,95,0.00,,,0.00,VWS V14.01,2014-09-17 12:45:00,
2014-09-17 08:50:00,51.8,50.4,30.06,SSW,192,3.0,3.0,95,0.00,,,0.00,VWS V14.01,2014-09-17 12:50:00,
2014-09-17 08:55:00,52.1,50.7,30.06,SSW,192,2.0,3.0,95,0.00,,,0.00,VWS V14.01,2014-09-17 12:55:00,
2014-09-17 09:00:00,52.4,51.0,30.06,SSW,192,0.0,1.0,95,0.00,,,0.00,VWS V14.01,2014-09-17 13:00:00,
2014-09-17 09:05:00,52.6,51.2,30.06,SSW,192,0.0,2.0,95,0.00,,,0.00,VWS V14.01,2014-09-17 13:05:00,
2014-09-17 09:10:00,52.8,51.4,30.06,SSW,192,3.0,3.0,95,0.00,,,0.00,VWS V14.01,2014-09-17 13:10:00,
2014-09-17 09:15:00,53.1,51.7,30.06,SSW,193,3.0,4.0,95,0.00,,,0.00,VWS V14.01,2014-09-17 13:15:00,
2014-09-17 09:20:00,53.4,52.0,30.06,South,189,1.0,4.0,95,0.00,,,0.00,VWS V14.01,2014-09-17 13:20:00,
2014-09-17 09:25:00,53.7,52.3,30.06,South,188,0.0,4.0,95,0.00,,,0.00,VWS V14.01,2014-09-17 13:25:00,
2014-09-17 09:30:00,54.0,52.6,30.06,SW,217,0.0,1.0,95,0.00,,,0.00,VWS V14.01,2014-09-17 13:30:00,
2014-09-17 09:35:00,54.2,52.8,30.06,SW,217,0.0,1.0,95,0.00,,,0.00,VWS V14.01,2014-09-17 13:35:00,
2014-09-17 09:40:00,54.5,53.1,30.07,SW,217,0.0,1.0,95,0.00,,,0.00,VWS V14.01,2014-09-17 13:40:00,
2014-09-17 09:45:00,54.8,53.4,30.07,SW,217,0.0,1.0,95,0.00,,,0.00,VWS V14.01,2014-09-17 13:45:00,
2014-09-17 09:51:00,55.1,53.7,30.07,SW,217,0.0,1.0,95,0.00,,,0.00,VWS V14.01,2014-09-17 13:51:00,
2014-09-17 09:56:00,55.5,54.1,30.06,SW,217,0.0,1.0,95,0.00,,,0.00,VWS V14.01,2014-09-17 13:56:00,
2014-09-17 10:01:00,55.9,54.5,30.06,SW,217,0.0,0.0,95,0.00,,,0.00,VWS V14.01,2014-09-17 14:01:00,
2014-09-17 10:06:00,56.3,54.9,30.06,ESE,123,0.0,2.0,95,0.00,,,0.00,VWS V14.01,2014-09-17 14:06:00,
2014-09-17 10:11:00,56.6,54.9,30.06,ESE,123,0.0,2.0,94,0.00,,,0.00,VWS V14.01,2014-09-17 14:11:00,
2014-09-17 10:16:00,57.1,55.4,30.06,ESE,123,0.0,2.0,94,0.00,,,0.00,VWS V14.01,2014-09-17 14:16:00,
2014-09-17 10:21:00,57.7,55.7,30.06,ESE,105,0.0,4.0,93,0.00,,,0.00,VWS V14.01,2014-09-17 14:21:00,
2014-09-17 10:26:00,58.4,55.5,30.06,NE,55,0.0,4.0,90,0.00,,,0.00,VWS V14.01,2014-09-17 14:26:00,
2014-09-17 10:31:00,59.2,56.0,30.06,NE,56,0.0,2.0,89,0.00,,,0.00,VWS V14.01,2014-09-17 14:31:00,
2014-09-17 10:36:00,60.1,55.6,30.06,NNE,27,5.0,5.0,85,0.00,,,0.00,VWS V14.01,2014-09-17 14:36:00,
2014-09-17 10:41:00,61.1,54.5,30.06,ENE,62,3.0,7.0,79,0.00,,,0.00,VWS V14.01,2014-09-17 14:41:00,
2014-09-17 10:46:00,61.6,54.7,30.05,SSE,159,1.0,7.0,78,0.00,,,0.00,VWS V14.01,2014-09-17 14:46:00,
2014-09-17 10:51:00,62.2,55.3,30.05,ENE,59,0.0,7.0,78,0.00,,,0.00,VWS V14.01,2014-09-17 14:51:00,
2014-09-17 10:56:00,62.6,54.6,30.05,NNE,21,2.0,7.0,75,0.00,,,0.00,VWS V14.01,2014-09-17 14:56:00,
2014-09-17 11:01:00,63.1,55.1,30.05,ENE,74,0.0,4.0,75,0.00,,,0.00,VWS V14.01,2014-09-17 15:01:00,
2014-09-17 11:06:00,63.4,55.0,30.05,ENE,67,0.0,4.0,74,0.00,,,0.00,VWS V14.01,2014-09-17 15:06:00,
2014-09-17 11:11:00,63.7,54.5,30.05,ENE,71,0.0,4.0,72,0.00,,,0.00,VWS V14.01,2014-09-17 15:11:00,
2014-09-17 11:16:00,64.0,54.4,30.05,NE,53,0.0,4.0,71,0.00,,,0.00,VWS V14.01,2014-09-17 15:16:00,
2014-09-17 11:21:00,64.3,54.3,30.05,North,5,2.0,4.0,70,0.00,,,0.00,VWS V14.01,2014-09-17 15:21:00,
2014-09-17 11:25:00,64.5,55.3,30.05,NW,304,0.0,4.0,72,0.00,,,0.00,VWS V14.01,2014-09-17 15:25:00,
2014-09-17 11:30:00,65.0,55.4,30.04,SE,142,5.0,5.0,71,0.00,,,0.00,VWS V14.01,2014-09-17 15:30:00,
2014-09-17 11:35:00,65.4,54.6,30.05,ESE,115,0.0,5.0,68,0.00,,,0.00,VWS V14.01,2014-09-17 15:35:00,
2014-09-17 11:40:00,65.9,55.0,30.04,ENE,64,2.0,5.0,68,0.00,,,0.00,VWS V14.01,2014-09-17 15:40:00,
2014-09-17 11:45:00,66.2,54.9,30.04,NNE,24,3.0,6.0,67,0.00,,,0.00,VWS V14.01,2014-09-17 15:45:00,
2014-09-17 11:50:00,66.5,55.2,30.04,SE,140,0.0,6.0,67,0.00,,,0.00,VWS V14.01,2014-09-17 15:50:00,